Location: Clyde
(45.1830°S, 169.3170°E)
Time: 17:51:32
(UTC+12:00)

Cosmos 1486 Rocket - Pass Details

Date: 14 May 2021
Orbit: 759 x 783 km, 74.1° (Epoch: 16 June)

Event Time Altitude Azimuth Distance (km) Brightness Sun altitude
Rises 17:54:31 0° 202° (SSW) 3,270 7.3 -5.6°
Reaches altitude 10° 17:56:55 10° 201° (SSW) 2,340 6.5 -6.0°
Maximum altitude 18:02:15 89° 293° (WNW) 786 4.1 -6.9°
Drops below altitude 10° 18:07:33 10° 19° (NNE) 2,326 6.5 -7.8°
Sets 18:09:55 0° 19° (NNE) 3,249 7.3 -8.2°
